Погода в Чёрном Ануе

Россия / Республика Алтай     51°21′23″N   84°43′36″E
темп.,
°C
ветер,
м/с
пор.,
м/с
влажн.,
%
обл.,
%
осадки,
мм/ч
давл.,
гПа
погр.,
м
15 апреля, чт
чт1501:000ююз218454 0.0 103020
04:00−1ююз118476 0.0 103012
07:00−1ю22827 0.0 103035
10:00+5ю22572 0.0 1027536
13:00+9ю12435 0.0 10241122
16:00+9с225083 0.0 10221206
19:00+5с338424 0.0 1024333
22:00+2с129596 0.0 1026177
16 апреля, пт
пт1601:00+3ююв018784 0.0 1024219
04:00+3ю118389 0.0 102330
07:00+3ю128321 0.0 102353
10:00+6ю22654 0.0 1021645
13:00+11ююв12481 0.0 10181115
16:00+13ссв23402 0.0 10161547
19:00+9с33681 0.0 1016353
22:00+5сз00850 0.0 101810
17 апреля, сб
сб1701:00+4ю11875 0.0 101611
04:00+3ю2283100 0.0 101524
07:00+2ю2377100 0.0 101552
10:00+7ю1154100 0.0 1012314
13:00+10ссз1445100 0.1 10091510
16:00+6сз128492 1.6 1012497
19:00+7ссз227368 2.8 1011373
22:00+4зсз119259 0.8 1014277
18 апреля, вс
вс1801:00+2ссз129438 0.9 101473
04:00+1сз119456 0.3 101430
07:00+1з119682 0.5 101573
10:00+5юз266175 0.3 10131252
13:00+5ссз3573100 0.7 1013719
16:00+1ссв339698 1.4 1014200
19:00+1всв119689 1.9 1014184
22:000в009428 0.0 101384
19 апреля, пн
пн1901:00+1ююз118995 0.0 101116
04:000ю359764 0.1 1010123
07:00+1ююв369173 0.1 1008162
10:00+6юз41163100 0.1 10041519
13:00+1ссз2399100 4.6 1008133
16:00+2ссз2296100 2.4 1009286
19:00−2с4596100 5.1 1013462
22:00−6ссв3695100 3.4 1019575